Weather History for Livingston, MT

Change the Weather History Date:

Tuesday, March 19, 2013

  Actual Average Record
Temperature  
Mean Temperature 32 °F 36 °F  
Max Temperature 43 °F 48 °F 75 °F (1997)
Min Temperature 21 °F 25 °F 3 °F (1965)
Degree Days  
Heating Degree Days 34 29  
Month to date heating degree days 584  
Since 1 July heating degree days 5932  
Cooling Degree Days 0 0  
Month to date cooling degree days 0  
Year to date cooling degree days 0  
Moisture  
Dew Point 14 °F    
Average Humidity 54    
Maximum Humidity 81    
Minimum Humidity 23    
Precipitation  
Precipitation 0.00 in 0.02 in 0.43 in (1975)
Month to date precipitation 0.43  
Year to date precipitation 1.42  
Sea Level Pressure  
Sea Level Pressure 30.18 in    
Wind  
Wind Speed 16 mph (WSW)    
Max Wind Speed 23 mph    
Max Gust Speed 30 mph    
Visibility 9 miles    
Events Snow    
T = Trace of Precipitation, MM = Missing Value Source: NWS Daily Summary

Daily Weather History Graph

Daily Weather History Graph

Search for Another Location

Airport:

Trip Planner

Search our weather history database for the weather conditions in past years. The results will help you decide how hot, cold, wet, or windy it might be!

Date:

Astronomy

Mar. 19, 2013 Rise Set
Actual Time 7:26 AM MDT 7:33 PM MDT
Civil Twilight 6:56 AM MDT 8:03 PM MDT
Nautical Twilight 6:21 AM MDT 8:37 PM MDT
Astronomical Twilight 5:46 AM MDT 9:13 PM MDT
Moon 12:02 PM MDT 2:39 AM MDT
Length of Visible Light 13h 06m
Length of Day
12h 07m
Waxing Crescent, 50% of the Moon is Illuminated
Mar 19
Waxing Crescent
Mar 27
Full
Apr 2
Last Quarter
Apr 10
New
Apr 18
First Quarter

Hourly Weather History & Observations

Time (MDT) Temp. Windchill Dew Point Humidity Pressure Visibility Wind Dir Wind Speed Gust Speed Precip Events Conditions
12:53 AM 27.0 °F 14.7 °F 21.9 °F 81% 30.04 in 5.0 mi WSW 16.1 mph - 0.00 in Snow Light Snow
12:58 AM 26.6 °F 13.8 °F 21.2 °F 80% 29.95 in 2.5 mi WSW 17.3 mph - 0.00 in Snow Light Snow
1:08 AM 26.6 °F 13.8 °F 21.2 °F 80% 29.95 in 7.0 mi SW 17.3 mph 24.2 mph 0.00 in Snow Light Snow
1:16 AM 26.6 °F 13.1 °F 21.2 °F 80% 29.95 in 9.0 mi SW 19.6 mph 25.3 mph 0.00 in   Overcast
1:53 AM 28.0 °F 15.3 °F 19.0 °F 69% 30.06 in 10.0 mi WSW 18.4 mph - 0.00 in   Overcast
2:53 AM 27.0 °F 12.8 °F 21.0 °F 78% 30.10 in 10.0 mi WSW 21.9 mph 26.5 mph N/A   Overcast
3:53 AM 26.1 °F 12.3 °F 19.0 °F 75% 30.11 in 10.0 mi WSW 19.6 mph 29.9 mph N/A   Scattered Clouds
4:53 AM 27.0 °F 14.3 °F 18.0 °F 69% 30.12 in 10.0 mi WSW 17.3 mph - N/A   Overcast
5:53 AM 27.0 °F 14.7 °F 17.1 °F 66% 30.16 in 10.0 mi WSW 16.1 mph - N/A   Overcast
6:53 AM 25.0 °F 12.2 °F 16.0 °F 69% 30.20 in 10.0 mi WSW 16.1 mph - N/A   Overcast
7:53 AM 24.1 °F 13.1 °F 14.0 °F 65% 30.23 in 10.0 mi West 11.5 mph - N/A   Overcast
8:53 AM 27.0 °F 15.2 °F 12.9 °F 56% 30.26 in 10.0 mi West 15.0 mph - N/A   Overcast
9:53 AM 30.9 °F 18.1 °F 12.9 °F 47% 30.26 in 10.0 mi West 21.9 mph 28.8 mph N/A   Mostly Cloudy
10:53 AM 33.1 °F 20.6 °F 10.9 °F 40% 30.28 in 10.0 mi WSW 23.0 mph - N/A   Mostly Cloudy
11:53 AM 34.0 °F 22.7 °F 8.1 °F 34% 30.29 in 10.0 mi WNW 19.6 mph 27.6 mph N/A   Mostly Cloudy
12:53 PM 36.0 °F 24.4 °F 12.0 °F 37% 30.27 in 10.0 mi West 23.0 mph 29.9 mph N/A   Clear
1:53 PM 37.0 °F 26.2 °F 9.0 °F 31% 30.26 in 10.0 mi West 21.9 mph 29.9 mph N/A   Clear
2:53 PM 39.0 °F 29.3 °F 8.1 °F 28% 30.25 in 10.0 mi West 19.6 mph 24.2 mph N/A   Clear
3:53 PM 41.0 °F 33.5 °F 6.1 °F 24% 30.24 in 10.0 mi West 13.8 mph 21.9 mph N/A   Clear
4:53 PM 42.1 °F 35.7 °F 6.1 °F 23% 30.23 in 10.0 mi NW 11.5 mph 20.7 mph N/A   Clear
5:53 PM 42.1 °F 36.1 °F 7.0 °F 24% 30.22 in 10.0 mi NW 10.4 mph - N/A   Clear
6:53 PM 37.0 °F 32.4 °F 10.0 °F 33% 30.24 in 10.0 mi North 5.8 mph - N/A   Clear
7:53 PM 28.9 °F 23.9 °F 12.0 °F 49% 30.26 in 10.0 mi South 4.6 mph - N/A   Clear
8:53 PM 24.1 °F - 10.9 °F 57% 30.26 in 10.0 mi Calm Calm - N/A   Clear
9:53 PM 21.0 °F 16.2 °F 9.0 °F 60% 30.27 in 10.0 mi SW 3.5 mph - N/A   Clear
10:53 PM 25.0 °F 14.8 °F 10.0 °F 53% 30.23 in 10.0 mi East 10.4 mph - N/A   Clear
11:53 PM 25.0 °F 14.2 °F 10.9 °F 55% 30.20 in 10.0 mi ESE 11.5 mph - N/A   Partly Cloudy